Location: Chillicothe
(39.7950°N, 93.5520°W)
Time: 14:45:24
(UTC-06:00)

Vanguard 3 - Pass Details

Date: 24 October 2019
Orbit: 508 x 3263 km, 33.3° (Epoch: 14 November)

Event Time Altitude Azimuth Distance (km) Brightness Sun altitude
Rises 03:24:42 0° 262° (W) 2,599 - -47.2°
Reaches altitude 10° 03:27:01 10° 246° (WSW) 1,763 - -46.9°
Maximum altitude 03:30:08 23° 191° (SSW) 1,260 - -46.3°
Drops below altitude 10° 03:34:00 10° 138° (SE) 2,240 - -45.7°
Exits shadow 03:37:05 - 126° (SE) 3,410 10.6 -45.2°
Sets 03:37:24 0° 125° (SE) 3,531 10.7 -45.1°
